User: anonymous   Login
Location: Caltech
(34.1382°N, 118.1253°W)
Time: 13:47:24
(UTC-07:00)
Language:

Cosmos-2242 - Orbit

View from above orbital plane
View from above orbital plane
View from above satellite
View from above satellite

Ground track
Ground track

The orbit data is extracted from the following two-line orbital elements,

1 22626U 93024A   17177.14781864 +.00000194 +00000-0 +18480-4 0  9997
2 22626 082.5216 033.3749 0020659 090.9739 269.3845 14.87669627307184
Epoch (UTC): 26 June 2017 03:32:51
Eccentricity: 0.0020659
inclination: 82.5216°
perigee height: 591 km
apogee height: 619 km
right ascension of ascending node: 33.3749°
argument of perigee: 90.9739°
revolutions per day: 14.87669627
mean anomaly at epoch: 269.3845°
orbit number at epoch: 30718

The dashed part of the orbit path shows where the satellite is in the earth's shadow,  

DLR